| time (UTC) | temp C | wind direction | speed KPH | gust KPH | rain 1hr cm | rain 24hr cm | rain mn cm | humidity % | barometer mb |
| 20260510033758 | 14 | 176 | 0.0 | 0.0 | 0.00 | 0.13 | 0.13 | 78 | 1012.7 |
| 20260510033255 | 14 | 133 | 0.0 | 0.0 | 0.00 | 0.13 | 0.13 | 78 | 1012.5 |
| 20260510032751 | 14 | 148 | 0.0 | 0.0 | 0.00 | 0.13 | 0.13 | 78 | 1012.6 |
| 20260510032248 | 14 | 122 | 0.0 | 1.6 | 0.00 | 0.13 | 0.13 | 77 | 1012.4 |
| 20260510031743 | 15 | 166 | 0.0 | 1.6 | 0.00 | 0.13 | 0.13 | 77 | 1012.3 |
| 20260510031239 | 15 | 195 | 4.8 | 6.4 | 0.00 | 0.13 | 0.13 | 76 | 1012.5 |
| 20260510030739 | 14 | 138 | 0.0 | 0.0 | 0.00 | 0.13 | 0.13 | 77 | 1012.3 |
| 20260510030236 | 14 | 100 | 0.0 | 0.0 | 0.00 | 0.13 | 0.13 | 77 | 1012.4 |
| 20260510025733 | 14 | 128 | 0.0 | 1.6 | 0.00 | 0.13 | 0.13 | 76 | 1012.4 |
| 20260510025231 | 15 | 201 | 0.0 | 0.0 | 0.00 | 0.13 | 0.13 | 77 | 1012.4 |
| 20260510024728 | 15 | 138 | 0.0 | 1.6 | 0.00 | 0.13 | 0.13 | 76 | 1012.3 |
| 20260510024224 | 15 | 101 | 0.0 | 0.0 | 0.00 | 0.13 | 0.13 | 76 | 1012.4 |
| 20260510023720 | 15 | 217 | 0.0 | 1.6 | 0.00 | 0.13 | 0.13 | 76 | 1012.5 |
| 20260510023217 | 15 | 139 | 0.0 | 1.6 | 0.00 | 0.13 | 0.13 | 76 | 1012.5 |
| 20260510022713 | 15 | 119 | 0.0 | 0.0 | 0.00 | 0.13 | 0.13 | 76 | 1012.4 |
| 20260510022208 | 14 | 136 | 0.0 | 1.6 | 0.00 | 0.13 | 0.13 | 77 | 1012.3 |
| 20260510021703 | 14 | 131 | 1.6 | 3.2 | 0.00 | 0.13 | 0.13 | 77 | 1011.9 |
| 20260510021201 | 14 | 140 | 0.0 | 0.0 | 0.00 | 0.13 | 0.13 | 77 | 1012.1 |
| 20260510020655 | 15 | 113 | 0.0 | 0.0 | 0.00 | 0.13 | 0.13 | 76 | 1012.1 |
| 20260510020151 | 15 | 172 | 0.0 | 0.0 | 0.00 | 0.13 | 0.13 | 75 | 1012.1 |
| 20260510015647 | 15 | 146 | 0.0 | 0.0 | 0.00 | 0.13 | 0.13 | 75 | 1012.1 |
| 20260510015139 | 15 | 173 | 0.0 | 0.0 | 0.00 | 0.13 | 0.13 | 75 | 1011.7 |
| 20260510014638 | 14 | 152 | 0.0 | 0.0 | 0.00 | 0.13 | 0.13 | 76 | 1011.8 |
| 20260510014136 | 14 | 132 | 0.0 | 0.0 | 0.00 | 0.13 | 0.13 | 77 | 1011.7 |
| 20260510013636 | 15 | 116 | 0.0 | 0.0 | 0.00 | 0.13 | 0.13 | 76 | 1011.6 |
| 20260510013132 | 15 | 102 | 0.0 | 3.2 | 0.00 | 0.13 | 0.13 | 73 | 1011.4 |
| 20260510012632 | 15 | 150 | 0.0 | 0.0 | 0.00 | 0.13 | 0.13 | 73 | 1011.5 |
| 20260510012128 | 15 | 123 | 0.0 | 0.0 | 0.00 | 0.13 | 0.13 | 73 | 1011.4 |
| 20260510011623 | 15 | 157 | 0.0 | 1.6 | 0.00 | 0.13 | 0.13 | 72 | 1011.4 |
| 20260510011119 | 15 | 149 | 0.0 | 0.0 | 0.00 | 0.13 | 0.13 | 72 | 1011.3 |
| 20260510010615 | 15 | 142 | 0.0 | 0.0 | 0.00 | 0.13 | 0.13 | 73 | 1011.4 |
| 20260510010113 | 15 | 141 | 0.0 | 0.0 | 0.00 | 0.13 | 0.13 | 72 | 1011.3 |
| 20260510005608 | 15 | 112 | 0.0 | 0.0 | 0.00 | 0.13 | 0.13 | 71 | 1011.2 |
| 20260510005106 | 16 | 115 | 0.0 | 1.6 | 0.00 | 0.13 | 0.13 | 71 | 1011.2 |
| 20260510004604 | 16 | 170 | 0.0 | 1.6 | 0.00 | 0.13 | 0.13 | 71 | 1011.2 |
| 20260510004102 | 16 | 130 | 0.0 | 0.0 | 0.00 | 0.13 | 0.13 | 70 | 1011.1 |
| 20260510003558 | 16 | 160 | 0.0 | 0.0 | 0.00 | 0.13 | 0.13 | 69 | 1011.2 |
| 20260510003054 | 16 | 118 | 0.0 | 0.0 | 0.00 | 0.13 | 0.13 | 69 | 1011.1 |
| 20260510002548 | 16 | 158 | 0.0 | 0.0 | 0.00 | 0.13 | 0.13 | 68 | 1011.0 |
| 20260510002046 | 16 | 127 | 0.0 | 0.0 | 0.00 | 0.13 | 0.13 | 68 | 1010.9 |
| 20260510001543 | 17 | 171 | 0.0 | 0.0 | 0.00 | 0.13 | 0.13 | 67 | 1010.8 |
| 20260510001042 | 17 | 110 | 0.0 | 3.2 | 0.00 | 0.13 | 0.13 | 65 | 1010.8 |
| 20260510000542 | 18 | 280 | 1.6 | 4.8 | 0.00 | 0.13 | 0.13 | 63 | 1010.5 |
| 20260510000039 | 18 | 235 | 1.6 | 3.2 | 0.00 | 0.13 | 0.13 | 64 | 1010.7 |
| 20260509235535 | 18 | 212 | 1.6 | 6.4 | 0.00 | 0.13 | 0.13 | 62 | 1010.4 |
| 20260509235032 | 18 | 168 | 0.0 | 1.6 | 0.00 | 0.13 | 0.13 | 62 | 1010.4 |
| 20260509234528 | 18 | 194 | 0.0 | 4.8 | 0.00 | 0.13 | 0.13 | 61 | 1010.4 |
| 20260509234026 | 18 | 290 | 3.2 | 6.4 | 0.00 | 0.13 | 0.13 | 60 | 1010.4 |
| 20260509233523 | 18 | 285 | 3.2 | 12.9 | 0.00 | 0.13 | 0.13 | 60 | 1010.4 |
| 20260509233021 | 18 | 221 | 3.2 | 3.2 | 0.00 | 0.13 | 0.13 | 59 | 1010.7 |
| 20260509232517 | 18 | 245 | 1.6 | 9.7 | 0.00 | 0.13 | 0.13 | 60 | 1010.3 |
| 20260509232014 | 19 | 206 | 6.4 | 11.3 | 0.00 | 0.13 | 0.13 | 57 | 1010.4 |
| 20260509231510 | 20 | 247 | 0.0 | 3.2 | 0.00 | 0.13 | 0.13 | 59 | 1010.4 |
| 20260509231008 | 20 | 130 | 0.0 | 0.0 | 0.00 | 0.13 | 0.13 | 58 | 1010.7 |
| 20260509230505 | 20 | 257 | 3.2 | 4.8 | 0.00 | 0.13 | 0.13 | 56 | 1010.7 |
| 20260509230001 | 20 | 243 | 3.2 | 4.8 | 0.00 | 0.13 | 0.13 | 55 | 1010.7 |
| 20260509225457 | 20 | 258 | 0.0 | 6.4 | 0.00 | 0.13 | 0.13 | 57 | 1010.8 |
| 20260509224953 | 20 | 284 | 6.4 | 9.7 | 0.00 | 0.13 | 0.13 | 56 | 1011.1 |
| 20260509224448 | 20 | 244 | 0.0 | 0.0 | 0.00 | 0.13 | 0.13 | 59 | 1011.2 |
| 20260509223946 | 21 | 263 | 3.2 | 6.4 | 0.00 | 0.13 | 0.13 | 54 | 1011.3 |
| 20260509223442 | 20 | 201 | 0.0 | 1.6 | 0.00 | 0.13 | 0.13 | 57 | 1011.2 |
| 20260509222940 | 20 | 258 | 3.2 | 3.2 | 0.00 | 0.13 | 0.13 | 55 | 1011.2 |
| 20260509222435 | 20 | 17 | 3.2 | 6.4 | 0.00 | 0.13 | 0.13 | 55 | 1011.3 |
| 20260509221931 | 20 | 272 | 6.4 | 11.3 | 0.00 | 0.13 | 0.13 | 55 | 1011.0 |
| 20260509221428 | 19 | 237 | 3.2 | 11.3 | 0.00 | 0.13 | 0.13 | 59 | 1010.9 |
| 20260509220924 | 19 | 294 | 3.2 | 14.5 | 0.00 | 0.13 | 0.13 | 58 | 1011.1 |
| 20260509220420 | 20 | 273 | 8.0 | 12.9 | 0.00 | 0.13 | 0.13 | 56 | 1011.2 |
| 20260509215916 | 20 | 240 | 3.2 | 14.5 | 0.00 | 0.13 | 0.13 | 57 | 1011.1 |
| 20260509215411 | 19 | 286 | 6.4 | 6.4 | 0.00 | 0.13 | 0.13 | 59 | 1011.1 |
| 20260509214909 | 20 | 263 | 4.8 | 11.3 | 0.00 | 0.13 | 0.13 | 56 | 1010.9 |
| 20260509214406 | 19 | 263 | 8.0 | 12.9 | 0.00 | 0.13 | 0.13 | 57 | 1011.0 |
| 20260509213904 | 18 | 264 | 8.0 | 16.1 | 0.00 | 0.13 | 0.13 | 59 | 1010.9 |
| 20260509213359 | 19 | 308 | 4.8 | 12.9 | 0.00 | 0.13 | 0.13 | 60 | 1010.9 |
| 20260509212857 | 19 | 224 | 1.6 | 9.7 | 0.00 | 0.13 | 0.13 | 59 | 1011.0 |
| 20260509212354 | 20 | 285 | 3.2 | 12.9 | 0.00 | 0.13 | 0.13 | 61 | 1010.9 |
| 20260509211850 | 20 | 302 | 6.4 | 9.7 | 0.00 | 0.13 | 0.13 | 59 | 1010.8 |
| 20260509211346 | 20 | 275 | 9.7 | 12.9 | 0.00 | 0.13 | 0.13 | 56 | 1010.8 |
| 20260509210843 | 20 | 226 | 6.4 | 9.7 | 0.00 | 0.13 | 0.13 | 58 | 1010.8 |
| 20260509210340 | 20 | 206 | 3.2 | 6.4 | 0.00 | 0.13 | 0.13 | 60 | 1011.0 |
| 20260509205840 | 20 | 242 | 6.4 | 9.7 | 0.00 | 0.13 | 0.13 | 61 | 1010.8 |
| 20260509205334 | 18 | 258 | 8.0 | 17.7 | 0.00 | 0.13 | 0.13 | 61 | 1010.9 |
| 20260509204831 | 18 | 245 | 1.6 | 6.4 | 0.00 | 0.13 | 0.13 | 64 | 1010.7 |
| 20260509204328 | 18 | 271 | 9.7 | 22.5 | 0.00 | 0.13 | 0.13 | 59 | 1010.7 |
| 20260509203824 | 19 | 262 | 6.4 | 9.7 | 0.00 | 0.13 | 0.13 | 61 | 1010.8 |
| 20260509203321 | 20 | 290 | 8.0 | 11.3 | 0.00 | 0.13 | 0.13 | 57 | 1010.7 |
| 20260509202817 | 19 | 288 | 6.4 | 9.7 | 0.00 | 0.13 | 0.13 | 60 | 1010.8 |
| 20260509202314 | 18 | 226 | 6.4 | 16.1 | 0.00 | 0.13 | 0.13 | 61 | 1011.0 |
| 20260509201813 | 18 | 255 | 6.4 | 11.3 | 0.00 | 0.13 | 0.13 | 60 | 1010.9 |
| 20260509201310 | 18 | 262 | 4.8 | 9.7 | 0.00 | 0.13 | 0.13 | 61 | 1010.9 |
| 20260509200806 | 19 | 265 | 8.0 | 17.7 | 0.00 | 0.13 | 0.13 | 63 | 1010.9 |
| 20260509200302 | 20 | 59 | 3.2 | 6.4 | 0.00 | 0.13 | 0.13 | 62 | 1011.1 |
| 20260509195758 | 20 | 278 | 6.4 | 12.9 | 0.00 | 0.13 | 0.13 | 58 | 1011.0 |
| 20260509195253 | 20 | 5 | 0.0 | 9.7 | 0.00 | 0.13 | 0.13 | 64 | 1011.0 |
| 20260509194748 | 19 | 282 | 4.8 | 6.4 | 0.00 | 0.13 | 0.13 | 58 | 1011.1 |
| 20260509194244 | 19 | 338 | 1.6 | 12.9 | 0.00 | 0.13 | 0.13 | 64 | 1011.1 |
| 20260509193742 | 18 | 267 | 6.4 | 6.4 | 0.00 | 0.13 | 0.13 | 60 | 1011.2 |
| 20260509193241 | 18 | 278 | 3.2 | 6.4 | 0.00 | 0.13 | 0.13 | 61 | 1011.1 |
| 20260509192738 | 18 | 206 | 3.2 | 11.3 | 0.00 | 0.13 | 0.13 | 61 | 1011.0 |
| 20260509192238 | 18 | 257 | 6.4 | 6.4 | 0.00 | 0.13 | 0.13 | 67 | 1011.2 |
| 20260509191734 | 18 | 296 | 3.2 | 6.4 | 0.00 | 0.13 | 0.13 | 67 | 1011.3 |
| 20260509191230 | 17 | 338 | 4.8 | 9.7 | 0.00 | 0.13 | 0.13 | 70 | 1011.3 |
| 20260509190726 | 17 | 287 | 3.2 | 6.4 | 0.00 | 0.13 | 0.13 | 65 | 1011.2 |
| 20260509190223 | 17 | 251 | 6.4 | 9.7 | 0.00 | 0.13 | 0.13 | 65 | 1011.3 |
| 20260509185721 | 17 | 236 | 3.2 | 9.7 | 0.00 | 0.13 | 0.13 | 65 | 1011.4 |
| 20260509185217 | 17 | 228 | 3.2 | 6.4 | 0.00 | 0.13 | 0.13 | 69 | 1011.3 |
| 20260509184715 | 16 | 197 | 0.0 | 3.2 | 0.00 | 0.13 | 0.13 | 71 | 1011.4 |
| 20260509184212 | 17 | 252 | 4.8 | 4.8 | 0.00 | 0.13 | 0.13 | 70 | 1011.4 |
| 20260509183708 | 17 | 250 | 0.0 | 3.2 | 0.00 | 0.13 | 0.13 | 70 | 1011.4 |
| 20260509183203 | 17 | 245 | 0.0 | 3.2 | 0.00 | 0.13 | 0.13 | 75 | 1011.4 |
| 20260509182659 | 17 | 280 | 0.0 | 6.4 | 0.00 | 0.13 | 0.13 | 71 | 1011.3 |
| 20260509182157 | 16 | 235 | 0.0 | 6.4 | 0.00 | 0.13 | 0.13 | 74 | 1011.4 |
| 20260509181654 | 16 | 261 | 3.2 | 3.2 | 0.00 | 0.13 | 0.13 | 76 | 1011.3 |
| 20260509181152 | 16 | 274 | 3.2 | 4.8 | 0.00 | 0.13 | 0.13 | 77 | 1011.3 |
| 20260509180648 | 16 | 239 | 1.6 | 3.2 | 0.00 | 0.13 | 0.13 | 78 | 1011.1 |
| 20260509180144 | 16 | 282 | 1.6 | 4.8 | 0.00 | 0.13 | 0.13 | 80 | 1011.3 |
| 20260509175641 | 15 | 232 | 0.0 | 0.0 | 0.00 | 0.13 | 0.13 | 79 | 1011.4 |
| 20260509175138 | 15 | 291 | 1.6 | 4.8 | 0.00 | 0.13 | 0.13 | 79 | 1011.5 |
| 20260509174634 | 15 | 290 | 3.2 | 3.2 | 0.00 | 0.13 | 0.13 | 79 | 1011.3 |
| 20260509174134 | 15 | 284 | 0.0 | 1.6 | 0.00 | 0.13 | 0.13 | 84 | 1011.6 |
| 20260509173630 | 15 | 269 | 1.6 | 4.8 | 0.00 | 0.13 | 0.13 | 81 | 1011.3 |
| 20260509173126 | 15 | 266 | 0.0 | 0.0 | 0.00 | 0.13 | 0.13 | 84 | 1011.5 |
| 20260509172623 | 15 | 249 | 0.0 | 0.0 | 0.00 | 0.13 | 0.13 | 84 | 1011.4 |
| 20260509172119 | 14 | 249 | 0.0 | 0.0 | 0.00 | 0.13 | 0.13 | 87 | 1011.6 |
| 20260509171614 | 14 | 252 | 0.0 | 0.0 | 0.00 | 0.13 | 0.13 | 88 | 1011.7 |
| 20260509171111 | 14 | 251 | 0.0 | 0.0 | 0.00 | 0.13 | 0.13 | 85 | 1011.9 |
| 20260509170607 | 14 | 253 | 0.0 | 1.6 | 0.00 | 0.13 | 0.13 | 84 | 1011.8 |
| 20260509165602 | 15 | 231 | 0.0 | 0.0 | 0.00 | 0.13 | 0.13 | 82 | 1011.8 |
| 20260509165057 | 15 | 270 | 1.6 | 1.6 | 0.00 | 0.13 | 0.13 | 84 | 1011.8 |
| 20260509164554 | 15 | 268 | 0.0 | 3.2 | 0.00 | 0.13 | 0.13 | 85 | 1011.7 |
| 20260509164050 | 15 | 258 | 1.6 | 3.2 | 0.00 | 0.13 | 0.13 | 82 | 1011.7 |
| 20260509163549 | 15 | 89 | 0.0 | 0.0 | 0.00 | 0.13 | 0.13 | 83 | 1011.5 |
| 20260509163049 | 15 | 117 | 0.0 | 0.0 | 0.00 | 0.13 | 0.13 | 83 | 1011.6 |
| 20260509162546 | 14 | 283 | 1.6 | 3.2 | 0.00 | 0.13 | 0.13 | 85 | 1011.6 |
| 20260509162042 | 14 | 71 | 1.6 | 1.6 | 0.00 | 0.13 | 0.13 | 86 | 1011.5 |
| 20260509161538 | 13 | 177 | 1.6 | 1.6 | 0.00 | 0.13 | 0.13 | 87 | 1011.6 |
| 20260509161033 | 13 | 94 | 0.0 | 3.2 | 0.00 | 0.13 | 0.13 | 90 | 1011.7 |
| 20260509160530 | 14 | 89 | 0.0 | 0.0 | 0.00 | 0.13 | 0.13 | 88 | 1011.6 |
| 20260509160025 | 14 | 94 | 0.0 | 0.0 | 0.00 | 0.13 | 0.13 | 89 | 1011.8 |
| 20260509155521 | 13 | 95 | 0.0 | 0.0 | 0.00 | 0.13 | 0.13 | 88 | 1011.7 |
| 20260509155017 | 13 | 93 | 0.0 | 0.0 | 0.00 | 0.13 | 0.13 | 88 | 1011.9 |
| 20260509154514 | 13 | 92 | 0.0 | 0.0 | 0.00 | 0.13 | 0.13 | 89 | 1011.8 |
| 20260509154012 | 13 | 209 | 0.0 | 0.0 | 0.00 | 0.13 | 0.13 | 90 | 1011.9 |
| 20260509153508 | 13 | 106 | 0.0 | 0.0 | 0.00 | 0.13 | 0.13 | 90 | 1012.0 |
| 20260509153005 | 13 | 100 | 3.2 | 3.2 | 0.00 | 0.13 | 0.13 | 90 | 1011.9 |
| 20260509152501 | 13 | 106 | 0.0 | 1.6 | 0.00 | 0.13 | 0.13 | 91 | 1011.8 |
| 20260509151958 | 13 | 92 | 1.6 | 4.8 | 0.00 | 0.13 | 0.13 | 91 | 1012.0 |
| 20260509151454 | 13 | 100 | 0.0 | 0.0 | 0.00 | 0.13 | 0.13 | 92 | 1011.8 |
| 20260509150953 | 13 | 110 | 0.0 | 0.0 | 0.00 | 0.13 | 0.13 | 91 | 1012.1 |
| 20260509150449 | 13 | 98 | 0.0 | 0.0 | 0.00 | 0.13 | 0.13 | 94 | 1012.2 |
| 20260509145948 | 13 | 39 | 0.0 | 1.6 | 0.00 | 0.13 | 0.13 | 93 | 1012.3 |
| 20260509145443 | 12 | 84 | 0.0 | 0.0 | 0.00 | 0.13 | 0.13 | 93 | 1012.2 |
| 20260509144938 | 12 | 85 | 0.0 | 3.2 | 0.00 | 0.13 | 0.13 | 92 | 1012.2 |
| 20260509144436 | 12 | 88 | 0.0 | 1.6 | 0.00 | 0.13 | 0.13 | 94 | 1012.0 |
| 20260509143933 | 12 | 98 | 0.0 | 0.0 | 0.00 | 0.13 | 0.13 | 94 | 1011.9 |
| 20260509143430 | 12 | 94 | 0.0 | 1.6 | 0.00 | 0.13 | 0.13 | 94 | 1012.1 |
| 20260509142926 | 12 | 88 | 0.0 | 1.6 | 0.00 | 0.13 | 0.13 | 95 | 1012.0 |
| 20260509142423 | 12 | 73 | 0.0 | 3.2 | 0.00 | 0.13 | 0.13 | 96 | 1011.8 |
| 20260509141918 | 12 | 113 | 1.6 | 1.6 | 0.00 | 0.13 | 0.13 | 95 | 1012.1 |
| 20260509141416 | 12 | 103 | 0.0 | 0.0 | 0.00 | 0.13 | 0.13 | 95 | 1011.9 |
| 20260509140912 | 12 | 91 | 0.0 | 0.0 | 0.00 | 0.13 | 0.13 | 96 | 1012.2 |
| 20260509140409 | 12 | 92 | 0.0 | 0.0 | 0.00 | 0.13 | 0.13 | 96 | 1011.9 |
| 20260509135907 | 12 | 90 | 0.0 | 0.0 | 0.00 | 0.13 | 0.13 | 97 | 1012.0 |
| 20260509135404 | 12 | 90 | 0.0 | 0.0 | 0.00 | 0.13 | 0.13 | 97 | 1012.1 |
| 20260509134902 | 12 | 91 | 0.0 | 0.0 | 0.18 | 0.13 | 0.13 | 96 | 1012.1 |
| 20260509134359 | 11 | 89 | 0.0 | 0.0 | 0.18 | 0.13 | 0.13 | 96 | 1012.5 |
| 20260509133855 | 11 | 90 | 0.0 | 0.0 | 0.00 | 0.10 | 0.10 | 97 | 1012.3 |
| 20260509133352 | 11 | 93 | 0.0 | 0.0 | 0.00 | 0.10 | 0.10 | 97 | 1012.4 |
| 20260509132851 | 11 | 88 | 0.0 | 1.6 | 0.00 | 0.10 | 0.10 | 96 | 1012.4 |
| 20260509132349 | 11 | 93 | 1.6 | 1.6 | 0.00 | 0.10 | 0.10 | 97 | 1012.4 |
| 20260509131845 | 11 | 102 | 0.0 | 0.0 | 0.00 | 0.10 | 0.10 | 96 | 1012.5 |
| 20260509131342 | 11 | 101 | 0.0 | 0.0 | 0.00 | 0.10 | 0.10 | 96 | 1012.4 |
| 20260509130839 | 11 | 100 | 0.0 | 0.0 | 0.00 | 0.10 | 0.10 | 97 | 1012.3 |
| 20260509130334 | 11 | 100 | 0.0 | 0.0 | 0.00 | 0.10 | 0.10 | 98 | 1012.5 |
| 20260509125831 | 11 | 85 | 0.0 | 0.0 | 0.00 | 0.10 | 0.10 | 98 | 1012.5 |
| 20260509125328 | 11 | 92 | 0.0 | 0.0 | 0.00 | 0.10 | 0.10 | 98 | 1012.3 |
| 20260509124824 | 11 | 108 | 0.0 | 0.0 | 0.00 | 0.10 | 0.10 | 99 | 1012.5 |
| 20260509124321 | 11 | 102 | 1.6 | 1.6 | 0.00 | 0.10 | 0.10 | 99 | 1012.6 |
| 20260509123819 | 11 | 69 | 1.6 | 4.8 | 0.00 | 0.10 | 0.10 | 99 | 1012.6 |
| 20260509123316 | 10 | 236 | 0.0 | 0.0 | 0.00 | 0.10 | 0.10 | 99 | 1012.6 |
| 20260509122811 | 10 | 81 | 1.6 | 3.2 | 0.00 | 0.10 | 0.10 | 99 | 1012.4 |
| 20260509122309 | 10 | 83 | 0.0 | 0.0 | 0.00 | 0.10 | 0.10 | 99 | 1012.5 |
| 20260509121806 | 10 | 95 | 0.0 | 0.0 | 0.13 | 0.10 | 0.10 | 99 | 1012.6 |
| 20260509121303 | 10 | 104 | 0.0 | 0.0 | 0.13 | 0.10 | 0.10 | 99 | 1012.7 |
| 20260509120801 | 10 | 104 | 0.0 | 0.0 | 0.00 | 0.08 | 0.08 | 99 | 1012.8 |
| 20260509120259 | 10 | 104 | 0.0 | 0.0 | 0.18 | 0.08 | 0.08 | 99 | 1012.8 |
| 20260509115757 | 10 | 104 | 0.0 | 0.0 | 0.00 | 0.05 | 0.05 | 99 | 1012.6 |
| 20260509115253 | 10 | 106 | 0.0 | 0.0 | 0.00 | 0.05 | 0.05 | 99 | 1012.8 |
| 20260509114751 | 10 | 117 | 0.0 | 0.0 | 0.00 | 0.05 | 0.05 | 99 | 1012.7 |
| 20260509114250 | 10 | 133 | 0.0 | 0.0 | 0.00 | 0.05 | 0.05 | 99 | 1012.6 |
| 20260509113748 | 10 | 103 | 0.0 | 0.0 | 0.00 | 0.05 | 0.05 | 99 | 1012.6 |
| 20260509113245 | 10 | 103 | 0.0 | 0.0 | 0.00 | 0.05 | 0.05 | 99 | 1012.7 |
| 20260509112742 | 10 | 104 | 0.0 | 0.0 | 0.00 | 0.05 | 0.05 | 99 | 1012.5 |
| 20260509112239 | 10 | 102 | 0.0 | 0.0 | 0.00 | 0.05 | 0.05 | 99 | 1012.5 |
| 20260509111736 | 10 | 102 | 0.0 | 1.6 | 0.00 | 0.05 | 0.05 | 99 | 1012.2 |
| 20260509111232 | 10 | 100 | 0.0 | 0.0 | 0.00 | 0.05 | 0.05 | 99 | 1012.3 |
| 20260509110730 | 10 | 103 | 0.0 | 0.0 | 0.00 | 0.05 | 0.05 | 99 | 1012.2 |
| 20260509110226 | 10 | 103 | 0.0 | 0.0 | 0.00 | 0.05 | 0.05 | 99 | 1012.3 |
| 20260509105725 | 10 | 103 | 0.0 | 0.0 | 0.00 | 0.05 | 0.05 | 99 | 1012.2 |
| 20260509105222 | 10 | 103 | 0.0 | 0.0 | 0.00 | 0.05 | 0.05 | 98 | 1012.1 |
| 20260509104719 | 10 | 92 | 0.0 | 1.6 | 0.00 | 0.05 | 0.05 | 99 | 1012.2 |
| 20260509104216 | 10 | 96 | 0.0 | 0.0 | 0.00 | 0.05 | 0.05 | 98 | 1012.2 |
| 20260509103714 | 10 | 199 | 0.0 | 0.0 | 0.00 | 0.05 | 0.05 | 98 | 1012.1 |
| 20260509103211 | 10 | 186 | 0.0 | 0.0 | 0.13 | 0.05 | 0.05 | 97 | 1012.1 |
| 20260509102709 | 10 | 94 | 0.0 | 1.6 | 0.00 | 0.03 | 0.03 | 98 | 1012.1 |
| 20260509102206 | 10 | 75 | 0.0 | 0.0 | 0.00 | 0.03 | 0.03 | 98 | 1012.1 |
| 20260509101702 | 10 | 75 | 0.0 | 0.0 | 0.00 | 0.03 | 0.03 | 98 | 1012.0 |
| 20260509101158 | 10 | 75 | 1.6 | 1.6 | 0.00 | 0.03 | 0.03 | 97 | 1012.1 |
| 20260509100656 | 10 | 75 | 0.0 | 0.0 | 0.00 | 0.03 | 0.03 | 97 | 1012.3 |
| 20260509100153 | 10 | 64 | 0.0 | 1.6 | 0.00 | 0.03 | 0.03 | 95 | 1012.2 |
| 20260509095650 | 10 | 33 | 0.0 | 0.0 | 0.00 | 0.03 | 0.03 | 93 | 1012.2 |
| 20260509095147 | 10 | 28 | 0.0 | 0.0 | 0.00 | 0.03 | 0.03 | 93 | 1012.2 |
| 20260509094643 | 10 | 26 | 0.0 | 0.0 | 0.00 | 0.03 | 0.03 | 93 | 1012.5 |
| 20260509094140 | 10 | 27 | 0.0 | 0.0 | 0.00 | 0.03 | 0.03 | 93 | 1012.4 |
| 20260509093639 | 11 | 28 | 0.0 | 0.0 | 0.00 | 0.03 | 0.03 | 91 | 1012.4 |
| 20260509093136 | 11 | 329 | 0.0 | 0.0 | 0.18 | 0.03 | 0.03 | 88 | 1012.3 |
| 20260509092634 | 11 | 310 | 0.0 | 0.0 | 0.18 | 0.03 | 0.03 | 88 | 1012.5 |
| 20260509092132 | 11 | 13 | 0.0 | 1.6 | 0.00 | 0.00 | 0.00 | 86 | 1012.6 |
| 20260509091630 | 11 | 276 | 0.0 | 0.0 | 0.00 | 0.00 | 0.00 | 84 | 1012.5 |
| 20260509091125 | 11 | 291 | 1.6 | 1.6 | 0.00 | 0.00 | 0.00 | 82 | 1012.6 |
| 20260509090623 | 12 | 278 | 0.0 | 1.6 | 0.00 | 0.00 | 0.00 | 82 | 1012.7 |
| 20260509090120 | 12 | 164 | 0.0 | 0.0 | 0.00 | 0.00 | 0.00 | 79 | 1012.8 |
| 20260509085618 | 12 | 164 | 0.0 | 0.0 | 0.00 | 0.00 | 0.00 | 77 | 1012.7 |
| 20260509085113 | 12 | 164 | 0.0 | 1.6 | 0.00 | 0.00 | 0.00 | 77 | 1012.6 |
| 20260509084611 | 12 | 254 | 1.6 | 1.6 | 0.00 | 0.00 | 0.00 | 77 | 1012.7 |
| 20260509084108 | 12 | 246 | 1.6 | 6.4 | 0.00 | 0.00 | 0.00 | 75 | 1012.9 |
| 20260509083605 | 12 | 258 | 4.8 | 9.7 | 0.00 | 0.00 | 0.00 | 74 | 1012.8 |
| 20260509083102 | 13 | 256 | 3.2 | 3.2 | 0.00 | 0.00 | 0.00 | 72 | 1012.6 |
| 20260509082559 | 13 | 243 | 3.2 | 9.7 | 0.00 | 0.00 | 0.00 | 71 | 1012.6 |
| 20260509082055 | 13 | 330 | 1.6 | 6.4 | 0.00 | 0.00 | 0.00 | 69 | 1012.7 |
| 20260509081552 | 13 | 255 | 9.7 | 16.1 | 0.00 | 0.00 | 0.00 | 68 | 1012.7 |
| 20260509081049 | 13 | 278 | 12.9 | 17.7 | 0.00 | 0.00 | 0.00 | 65 | 1012.9 |
| 20260509080547 | 13 | 291 | 16.1 | 25.7 | 0.00 | 0.00 | 0.00 | 66 | 1012.7 |
| 20260509080045 | 13 | 182 | 11.3 | 27.4 | 0.00 | 0.00 | 0.00 | 66 | 1012.7 |
| 20260509075542 | 12 | 212 | 3.2 | 9.7 | 0.00 | 0.00 | 0.00 | 71 | 1012.5 |
| 20260509075040 | 13 | 178 | 0.0 | 4.8 | 0.00 | 0.00 | 0.00 | 69 | 1012.3 |
| 20260509074537 | 12 | 285 | 0.0 | 9.7 | 0.00 | 0.00 | 0.00 | 68 | 1012.2 |
| 20260509074033 | 11 | 208 | 0.0 | 0.0 | 0.00 | 0.00 | 0.00 | 76 | 1012.2 |
| 20260509073530 | 11 | 109 | 0.0 | 0.0 | 0.00 | 0.00 | 0.00 | 83 | 1011.9 |
| 20260509073026 | 11 | 181 | 0.0 | 0.0 | 0.00 | 0.00 | 0.00 | 77 | 1011.8 |
| 20260509072523 | 12 | 108 | 0.0 | 0.0 | 0.00 | 0.00 | 0.00 | 80 | 1011.7 |
| 20260509072020 | 12 | 196 | 0.0 | 0.0 | 0.00 | 0.00 | 0.00 | 74 | 1011.8 |
| 20260509071516 | 12 | 196 | 0.0 | 3.2 | 0.00 | 0.00 | 0.00 | 73 | 1011.7 |
| 20260509071014 | 13 | 166 | 1.6 | 9.7 | 0.00 | 0.00 | 0.00 | 70 | 1011.6 |
| 20260509070511 | 12 | 203 | 8.0 | 12.9 | 0.00 | 0.00 | 0.00 | 70 | 1012.0 |
| 20260509070008 | 13 | 178 | 3.2 | 4.8 | 0.00 | 0.00 | 0.00 | 70 | 1011.7 |
| 20260509065503 | 12 | 66 | 0.0 | 6.4 | 0.00 | 0.00 | 0.00 | 69 | 1011.8 |
| 20260509064959 | 12 | 112 | 0.0 | 0.0 | 0.00 | 0.00 | 0.00 | 80 | 1011.8 |
| 20260509064457 | 11 | 120 | 0.0 | 0.0 | 0.00 | 0.00 | 0.00 | 72 | 1011.8 |
| 20260509063955 | 12 | 105 | 1.6 | 3.2 | 0.00 | 0.00 | 0.00 | 78 | 1011.7 |
| 20260509063450 | 12 | 157 | 0.0 | 0.0 | 0.00 | 0.00 | 0.00 | 68 | 1011.8 |
| 20260509062947 | 12 | 101 | 0.0 | 0.0 | 0.00 | 0.00 | 0.00 | 69 | 1011.7 |
| 20260509062445 | 12 | 100 | 0.0 | 0.0 | 0.00 | 0.00 | 0.00 | 67 | 1011.7 |
| 20260509061942 | 12 | 100 | 0.0 | 0.0 | 0.00 | 0.00 | 0.00 | 70 | 1011.5 |
| 20260509061439 | 12 | 100 | 0.0 | 0.0 | 0.00 | 0.00 | 0.00 | 69 | 1011.7 |
| 20260509060936 | 12 | 100 | 0.0 | 0.0 | 0.00 | 0.00 | 0.00 | 68 | 1011.7 |
| 20260509060434 | 12 | 100 | 0.0 | 0.0 | 0.00 | 0.00 | 0.00 | 71 | 1011.7 |
| 20260509055929 | 12 | 100 | 0.0 | 0.0 | 0.00 | 0.00 | 0.00 | 72 | 1011.6 |
| 20260509055424 | 11 | 100 | 0.0 | 0.0 | 0.00 | 0.00 | 0.00 | 72 | 1011.9 |
| 20260509054921 | 11 | 100 | 0.0 | 0.0 | 0.00 | 0.00 | 0.00 | 73 | 1011.8 |
| 20260509054418 | 11 | 101 | 0.0 | 0.0 | 0.00 | 0.00 | 0.00 | 72 | 1011.8 |
| 20260509053917 | 11 | 101 | 0.0 | 0.0 | 0.00 | 0.00 | 0.00 | 72 | 1011.8 |
| 20260509053415 | 11 | 100 | 0.0 | 0.0 | 0.00 | 0.00 | 0.00 | 79 | 1011.9 |
| 20260509052912 | 11 | 100 | 0.0 | 0.0 | 0.00 | 0.00 | 0.00 | 83 | 1012.0 |
| 20260509052409 | 11 | 100 | 0.0 | 0.0 | 0.00 | 0.00 | 0.00 | 82 | 1012.1 |
| 20260509051907 | 11 | 101 | 0.0 | 0.0 | 0.00 | 0.00 | 0.00 | 84 | 1012.2 |
| 20260509051404 | 11 | 104 | 1.6 | 3.2 | 0.00 | 0.00 | 0.00 | 82 | 1012.2 |
| 20260509050901 | 11 | 108 | 0.0 | 0.0 | 0.00 | 0.00 | 0.00 | 79 | 1012.2 |
| 20260509050358 | 11 | 107 | 0.0 | 0.0 | 0.00 | 0.00 | 0.00 | 83 | 1012.1 |
| 20260509045855 | 11 | 107 | 0.0 | 0.0 | 0.00 | 0.00 | 0.00 | 80 | 1012.2 |
| 20260509045352 | 11 | 107 | 0.0 | 0.0 | 0.00 | 0.00 | 0.00 | 75 | 1012.2 |
| 20260509044849 | 11 | 107 | 0.0 | 0.0 | 0.00 | 0.00 | 0.00 | 76 | 1012.4 |
| 20260509044346 | 11 | 107 | 0.0 | 0.0 | 0.00 | 0.00 | 0.00 | 76 | 1012.3 |
| 20260509043843 | 11 | 107 | 0.0 | 0.0 | 0.00 | 0.00 | 0.00 | 80 | 1012.4 |
| 20260509043338 | 11 | 107 | 0.0 | 0.0 | 0.00 | 0.00 | 0.00 | 81 | 1012.6 |
| 20260509042834 | 12 | 107 | 0.0 | 0.0 | 0.00 | 0.00 | 0.00 | 79 | 1012.6 |
| 20260509042331 | 12 | 107 | 0.0 | 0.0 | 0.00 | 0.00 | 0.00 | 70 | 1012.6 |
| 20260509041828 | 12 | 107 | 0.0 | 0.0 | 0.00 | 0.00 | 0.00 | 66 | 1012.6 |
| 20260509041325 | 12 | 107 | 0.0 | 0.0 | 0.00 | 0.00 | 0.00 | 64 | 1012.8 |
| 20260509040823 | 12 | 107 | 0.0 | 0.0 | 0.00 | 0.00 | 0.00 | 66 | 1013.0 |
| 20260509040320 | 12 | 107 | 0.0 | 0.0 | 0.00 | 0.00 | 0.00 | 66 | 1012.8 |
| 20260509035817 | 12 | 107 | 0.0 | 0.0 | 0.00 | 0.00 | 0.00 | 71 | 1012.6 |
| 20260509035314 | 12 | 107 | 0.0 | 0.0 | 0.00 | 0.00 | 0.00 | 77 | 1012.8 |
| 20260509034810 | 12 | 107 | 0.0 | 0.0 | 0.00 | 0.00 | 0.00 | 77 | 1012.7 |
| 20260509034308 | 12 | 107 | 0.0 | 0.0 | 0.00 | 0.00 | 0.00 | 71 | 1012.7 |